Flag for Canada Weather past 2 weeks in Yarmouth County, Nova Scotia, Canada

Now
54 °F

Drizzle. Fog.


Feels Like: 51 °F
Forecast: 51 / 60 °F
Wind: 9 mph from Northeast

Location: Yarmouth

Current Time: Oct 24, 2014 at 9:42:32 AM

Latest Report: Oct 24, 2014 at 9:00 AM


Visibility: 2 mi

Pressure: 29.52 "Hg

Humidity: 100%

Dew point: 54 °F

Location of Yarmouth CountyLocation

Historic Weather in Yarmouth County — Graph

°F

Yarmouth County temperature yesterday

Maximum temperature yesterday: 59 °F (at 3:00 PM)
Minimum temperature yesterday: 55 °F (at 1:04 AM)
Average temperature yesterday: 57 °F

Past Weeks' High & Low Weather Summary

 TemperatureHumidityPressure
High70 °F (Oct 16, 11:00 AM)100% (Oct 11, 5:00 PM)30.37 "Hg (Oct 11, 5:00 PM)
Low39 °F (Oct 13, 8:00 AM)55% (Oct 9, 3:00 PM)29.51 "Hg (Oct 19, 2:00 AM)
Average55 °F86%29.97 "Hg
* Reported Oct 9 8:00 AM — Oct 24 8:00 AM, Yarmouth County, Weather by CustomWeather, © 2014

Note: Actual official high and low records may vary slightly from our data, if they occured in-between our weather recording intervals... More about our weather records

Advertising

Yarmouth County weather history for previous 24 hours

 ConditionsComfort  
Time TempWeatherWind HumidityBarometerVisibility
8:00 AM
Oct 24
54 °FDrizzle. Fog.8 mph100%29.52 "Hg2 mi
7:00 AM54 °FFog.12 mph100%29.52 "Hg3 mi
6:00 AM55 °FOvercast.9 mph94%29.52 "Hg12 mi
5:00 AM55 °FPassing clouds.14 mph94%29.52 "Hg12 mi
4:00 AM55 °FPassing clouds.14 mph100%29.52 "Hg12 mi
3:00 AM57 °FPassing clouds.12 mph94%29.55 "Hg12 mi
2:00 AM57 °FPartly cloudy.9 mph94%29.55 "Hg9 mi
1:00 AM57 °FPassing clouds.10 mph94%29.57 "Hg9 mi
12:45 AM57 °FPassing clouds.10 mph100%29.58 "Hg9 mi
12:00 AM57 °FLight rain. Mostly cloudy.16 mph94%29.57 "Hg9 mi
11:00 PM
Oct 23
57 °FRain. Fog.16 mph94%29.61 "Hg3 mi
10:00 PM57 °FRain. Fog.14 mph94%29.65 "Hg2 mi
9:00 PM55 °FHeavy rain. Fog.13 mph100%29.65 "Hg2 mi
8:00 PM55 °FHeavy rain. Fog.20 mph100%29.65 "Hg3 mi
7:04 PM57 °FHeavy rain. Fog.20 mph94%29.66 "Hg3 mi
6:00 PM57 °FSprinkles. Fog.22 mph94%29.65 "Hg3 mi
5:00 PM57 °FRain showers. Fog.31 mph100%29.64 "Hg6 mi
4:00 PM57 °FSprinkles. Low clouds.25 mph94%29.68 "Hg7 mi
3:00 PM59 °FSprinkles. Low clouds.24 mph88%29.68 "Hg10 mi
2:00 PM57 °FLight rain. Low clouds.25 mph100%29.67 "Hg10 mi
1:00 PM57 °FLow clouds.23 mph94%29.77 "Hg7 mi
12:00 PM57 °FLow clouds.25 mph94%29.79 "Hg8 mi
11:00 AM55 °FLow clouds.22 mph100%29.82 "Hg7 mi
10:00 AM55 °FLight rain. Fog.24 mph94%29.84 "Hg6 mi
9:50 AM55 °FLow clouds.24 mph94%29.85 "Hg7 mi
9:00 AM55 °FLow clouds.22 mph94%29.85 "Hg7 mi
Weather by CustomWeather, © 2014

See weather overviewHow to use our weather pages